This is the latest recevied weather packets stored in our database for station/object KB4RFE. If no packets are shown the sender has not sent any weather packets the latest 10 day(s).
| Time | Temp. | Humidity | Pressure | Rain* | Wind** | Luminosity | Snow |
|---|---|---|---|---|---|---|---|
| 1788001506 | 23.89° C | 98% | 1022.8 hPa | 0 mm | - | 3 W/m² | - |
| 1788001201 | 23.89° C | 98% | 1022.9 hPa | 0 mm | - | 2 W/m² | - |
| 1788000896 | 23.89° C | 98% | 1022.8 hPa | 0 mm | - | 1 W/m² | - |
| 1788000592 | 23.89° C | 98% | 1022.8 hPa | 0 mm | - | 0 W/m² | - |
| 1788000291 | 23.89° C | 98% | 1022.7 hPa | 0 mm | - | 0 W/m² | - |
| 1787999987 | 23.89° C | 99% | 1022.7 hPa | 0 mm | - | 0 W/m² | - |
| 1787999683 | 23.89° C | 99% | 1022.9 hPa | 1.27 mm | - | 0 W/m² | - |
| 1787999380 | 24.44° C | 99% | 1022.9 hPa | 3.05 mm | - | 0 W/m² | - |
| 1787999079 | 24.44° C | 99% | 1022.8 hPa | 2.29 mm | - | 0 W/m² | - |
| 1787998774 | 24.44° C | 99% | 1022.9 hPa | 2.29 mm | - | 0 W/m² | - |
| 1787998472 | 23.89° C | 99% | 1022.7 hPa | 4.32 mm | - | 0 W/m² | - |
| 1787998167 | 23.89° C | 99% | 1022.6 hPa | 6.1 mm | - | 0 W/m² | - |
| 1787997867 | 23.89° C | 99% | 1022.5 hPa | 6.6 mm | - | 0 W/m² | - |
| 1787997566 | 23.89° C | 99% | 1022.5 hPa | 4.83 mm | - | 0 W/m² | - |
| 1787997265 | 23.89° C | 99% | 1022.4 hPa | 3.56 mm | - | 0 W/m² | - |
| 1787996960 | 24.44° C | 98% | 1022.4 hPa | 2.29 mm | - | 0 W/m² | - |
| 1787996654 | 24.44° C | 99% | 1022.5 hPa | 1.78 mm | - | 0 W/m² | - |
| 1787996350 | 24.44° C | 99% | 1022.1 hPa | 1.78 mm | - | 0 W/m² | - |
| 1787996049 | 24.44° C | 99% | 1022.1 hPa | 1.27 mm | - | 0 W/m² | - |
| 1787995744 | 24.44° C | 99% | 1022.2 hPa | 3.05 mm | - | 0 W/m² | - |
| 1787995440 | 24.44° C | 99% | 1022.3 hPa | 3.56 mm | - | 0 W/m² | - |
| 1787995136 | 24.44° C | 99% | 1022.4 hPa | 3.56 mm | - | 0 W/m² | - |
| 1787994831 | 24.44° C | 99% | 1022.3 hPa | 3.56 mm | - | 0 W/m² | - |
| 1787994528 | 24.44° C | 99% | 1021.8 hPa | 3.56 mm | - | 0 W/m² | - |
| 1787994224 | 24.44° C | 99% | 1021.8 hPa | 3.56 mm | - | 0 W/m² | - |
* Rain latest hour (hover to see other rain measurements)
** Current wind speed in m/s (hover to see current wind gust speed)